Tracking 35019 objects as of 13-Aug-2026
HD Live streaming from Space Station
objects crossing your sky now

DMSP 5D-2 F11 DEB


DMSP 5D-2 F11 DEB is no longer on orbit


NORAD ID: 28310
Int'l Code: 1991-082X
Launch date: November 28, 1991
Source: United States (US)
Launch site: AIR FORCE WESTERN TEST RANGE (AFWTR)
Decay date: 2025-11-13

Note: This is SATELLITE DEBRIS
Your satellite tracking list
Your tracking list is empty




NASA's NSSDC Master Catalog

Two Line Element Set (TLE):
1 28310U 91082X   25314.33151877  .02273566  00000-0  17402-1 0  9990
2 28310  98.5232  81.9440 0019071 321.8903  38.1005 15.68508005127707
Source of the keplerian elements: AFSPC